User: anonymous   Login
Location: Brno
(49.2000°N, 16.6330°E)
Time: 20:25:06
(UTC+02:00)
Language:

ISS - Orbit

View from above orbital plane
View from above orbital plane
View from above satellite
View from above satellite

Ground track
Ground track

The orbit data is extracted from the following two-line orbital elements,

1 25544U 98067A   16147.54187760  .00016717  00000-0  10270-3 0  9015
2 25544  51.6393 166.0186 0001637 120.9463 239.1851 15.54711862  1616
Epoch (UTC): 26 May 2016 13:00:18
Eccentricity: 0.0001637
inclination: 51.6393°
perigee height: 402 km
apogee height: 404 km
right ascension of ascending node: 166.0186°
argument of perigee: 120.9463°
revolutions per day: 15.54711862
mean anomaly at epoch: 239.1851°
orbit number at epoch: 161

The dashed part of the orbit path shows where the satellite is in the earth's shadow,  

DLR